Regional Weather Roundup
Issued by NWS

Home | Current Version | Previous Version | Text Only | Print | Product List | Glossary Off
Versions: 1 2 3 4 5 6 7 8 9 10 11 12 13 14 15 16 17 18 19 20 21 22 23 24 25 26 27 28 29 30 31 32 33 34 35 36 37 38 39 40 41 42 43 44 45 46 47 48 49 50

863
ASUS43 KFSD 072010
RWRSD

WEATHER ROUNDUP FOR SOUTH DAKOTA
NATIONAL WEATHER SERVICE SIOUX FALLS SD
200 PM CST WED DEC 07 2016

NOTE: "FAIR" INDICATES FEW OR NO CLOUDS BELOW 12,000 FEET WITH NO
SIGNIFICANT WEATHER AND/OR OBSTRUCTIONS TO VISIBILITY.


SDZ001>005-009-010-012>017-072100-
NORTHWEST AND NORTH CENTRAL SOUTH DAKOTA

CITY           SKY/WX    TMP DP  RH WIND       PRES   REMARKS
BUFFALO          N/A      7  -4  60 NW30      30.26R WCI -16
FAITH            N/A      7   0  73 NW29G36   30.31S WCI -16
MOBRIDGE       PTSUNNY   11   0  61 NW33G44   30.25R WCI -12
$$

SDZ012>016-024>037-041>051-057-063-072>074-072100-
SOUTHWEST AND SOUTH CENTRAL SOUTH DAKOTA

CITY           SKY/WX    TMP DP  RH WIND       PRES   REMARKS
RAPID CTY ARPT SUNNY     14  -4  44 NW23G32   30.32F WCI  -5
PIERRE         CLOUDY    13   4  67 W31G40    30.33S WCI  -9
CUSTER         PTSUNNY   11  -8  42 NE5       30.09S WCI   3
ELLSWORTH AFB  SUNNY     14  -4  44 NW23G30   30.30S WCI  -5
PHILIP         SUNNY     14   1  56 W22G32    30.38S WCI  -4
PINE RIDGE     MOSUNNY    9   1  70 NW5       30.33S WCI   1
SPEARFISH      CLOUDY     5  -4  66 W18G24    30.30S WCI -15
WINNER         FAIR      17   3  54 NW26G33   30.33F WCI  -2
$$

SDZ004>011-016>023-039-040-072100-
NORTHEAST SOUTH DAKOTA

CITY           SKY/WX    TMP DP  RH WIND       PRES   REMARKS
ABERDEEN       CLOUDY    12   1  61 NW21G31   30.24R WCI  -7
WATERTOWN      CLOUDY    12   4  70 W26G36    30.13S WCI  -8
BROOKINGS      FLURRIES  14   6  70 NW28G35   30.15S WCI  -6
SISSETON         N/A     16   7  67 NW24G33   30.11R WCI  -2
$$

SDZ017-020-022-023-036>040-048>070-072100-
SOUTHEAST SOUTH DAKOTA

CITY           SKY/WX    TMP DP  RH WIND       PRES   REMARKS
SIOUX FALLS    MOSUNNY   19   7  59 W24G32    30.22R WCI   2
HURON          PTSUNNY   16   4  59 NW29G38   30.27R WCI  -4
CHAMBERLAIN    SUNNY     17   6  62 NW25G38   30.32F WCI  -2
MITCHELL       SUNNY     19   5  54 NW31G39   30.30S WCI   0
YANKTON        SUNNY     19   3  49 W24G31    30.29R WCI   2
$$

ABBREVIATIONS USED IN REMARKS
   TC - TEMPERATURE IN CELSIUS
  WCI - WIND CHILL INDEX
   HX - HEAT INDEX
  VSB - VISIBILITY





USA.gov is the U.S. government's official web portal to all federal, state and local government web resources and services.